When you browse on this site, cookies collect data to enhance your experience and personalize the content and advertising you see.
Visit our Privacy Policy to learn more. By continuing to use the site, you agree to this use of cookies and data.
  • In Lithuania
  • List of Countries
  • For 7 days
  • Water Temperature
  • Weather Map
  • Weather Widgets
  • user-avatar
    Login

    Hourly Weather Elbasan

    Today, 15 October, Tuesday

    Time Temperature Precipitation Wind Pressure Humidity
    00:00 +17°C° 0 mm 0 mps 738 mmHg 78%
    01:00 +17°C° 0 mm 0 mps 738 mmHg 79%
    02:00 +17°C° 0 mm 0 mps 738 mmHg 79%
    03:00 +17°C° 0 mm 0 mps 737 mmHg 79%
    04:00 +16°C° 0 mm 0 mps 737 mmHg 79%
    05:00 +17°C° 0 mm 0 mps 737 mmHg 77%
    06:00 +18°C° 0 mm 0 mps 737 mmHg 74%
    07:00 +20°C° 0 mm 1 mps 738 mmHg 71%
    08:00 +22°C° 0 mm 1 mps 738 mmHg 64%
    09:00 +24°C° 0 mm 1 mps 737 mmHg 57%
    10:00 +26°C° 0 mm 1 mps 737 mmHg 50%
    11:00 +27°C° 0 mm 1 mps 737 mmHg 48%
    12:00 +27°C° 0 mm 2 mps 737 mmHg 46%
    13:00 +28°C° 0 mm 3 mps 737 mmHg 44%
    14:00 +27°C° 0 mm 2 mps 736 mmHg 49%
    15:00 +26°C° 0 mm 2 mps 736 mmHg 54%
    16:00 +25°C° 0 mm 2 mps 735 mmHg 59%
    17:00 +23°C° 0 mm 1 mps 736 mmHg 66%
    18:00 +21°C° 0 mm 1 mps 736 mmHg 73%
    19:00 +18°C° 0 mm 0 mps 736 mmHg 81%
    20:00 +18°C° 0 mm 0 mps 736 mmHg 81%
    21:00 +17°C° 0 mm 0 mps 736 mmHg 82%
    22:00 +19°C° 0 mm 1 mps 736 mmHg 82%
    23:00 +17°C° 0 mm 0 mps 736 mmHg 82%

    Tomorrow, 16 October, Wednesday

    Time Temperature Precipitation Wind Pressure Humidity
    00:00 +16°C° 0 mm 0 mps 736 mmHg 81%
    01:00 +16°C° 0 mm 0 mps 736 mmHg 81%
    02:00 +18°C° 0 mm 1 mps 736 mmHg 79%
    03:00 +18°C° 0 mm 1 mps 736 mmHg 77%
    04:00 +18°C° 0 mm 1 mps 736 mmHg 75%
    05:00 +18°C° 0 mm 1 mps 736 mmHg 70%
    06:00 +19°C° 0 mm 1 mps 736 mmHg 66%
    07:00 +19°C° 0 mm 1 mps 736 mmHg 62%
    08:00 +21°C° 0 mm 1 mps 736 mmHg 55%
    09:00 +24°C° 0 mm 1 mps 736 mmHg 47%
    10:00 +26°C° 0 mm 1 mps 737 mmHg 40%
    11:00 +26°C° 0 mm 1 mps 736 mmHg 38%
    12:00 +27°C° 0 mm 2 mps 736 mmHg 36%
    13:00 +27°C° 0 mm 2 mps 736 mmHg 35%
    14:00 +26°C° 0 mm 2 mps 735 mmHg 40%
    15:00 +25°C° 0 mm 2 mps 735 mmHg 46%
    16:00 +25°C° 0 mm 2 mps 735 mmHg 51%
    17:00 +23°C° 0 mm 1 mps 735 mmHg 59%
    18:00 +21°C° 0 mm 1 mps 735 mmHg 67%
    19:00 +17°C° 0 mm 0 mps 735 mmHg 76%
    20:00 +17°C° 0 mm 0 mps 736 mmHg 75%
    21:00 +19°C° 0 mm 1 mps 736 mmHg 75%
    22:00 +19°C° 0 mm 1 mps 736 mmHg 74%
    23:00 +18°C° 0 mm 1 mps 736 mmHg 72%

    Day after tomorrow, 17 October, Thursday

    Time Temperature Precipitation Wind Pressure Humidity
    00:00 +18°C° 0 mm 1 mps 736 mmHg 70%
    01:00 +18°C° 0 mm 1 mps 736 mmHg 69%
    02:00 +18°C° 0 mm 1 mps 736 mmHg 67%
    03:00 +18°C° 0 mm 1 mps 736 mmHg 66%
    04:00 +18°C° 0 mm 1 mps 736 mmHg 64%
    05:00 +18°C° 0 mm 1 mps 736 mmHg 62%
    06:00 +19°C° 0 mm 1 mps 736 mmHg 60%
    07:00 +19°C° 0 mm 1 mps 736 mmHg 58%
    08:00 +21°C° 0 mm 1 mps 736 mmHg 53%
    09:00 +23°C° 0 mm 1 mps 737 mmHg 47%
    10:00 +25°C° 0 mm 1 mps 737 mmHg 41%
    11:00 +26°C° 0 mm 1 mps 737 mmHg 40%
    12:00 +27°C° 0 mm 2 mps 737 mmHg 39%
    13:00 +27°C° 0 mm 2 mps 736 mmHg 38%
    14:00 +26°C° 0 mm 2 mps 736 mmHg 42%
    15:00 +25°C° 0 mm 2 mps 736 mmHg 47%
    16:00 +24°C° 0 mm 2 mps 736 mmHg 51%
    17:00 +23°C° 0 mm 2 mps 736 mmHg 58%
    18:00 +21°C° 0 mm 1 mps 736 mmHg 64%
    19:00 +17°C° 0 mm 0 mps 736 mmHg 70%
    20:00 +17°C° 0 mm 0 mps 737 mmHg 71%
    21:00 +17°C° 0 mm 0 mps 737 mmHg 71%
    22:00 +17°C° 0 mm 0 mps 737 mmHg 72%
    23:00 +16°C° 0 mm 0 mps 737 mmHg 72%

    18 October, Friday

    Time Temperature Precipitation Wind Pressure Humidity
    00:00 +16°C° 0 mm 0 mps 737 mmHg 72%
    01:00 +16°C° 0 mm 0 mps 736 mmHg 72%
    02:00 +16°C° 0 mm 0 mps 737 mmHg 72%
    03:00 +16°C° 0 mm 0 mps 737 mmHg 72%
    04:00 +16°C° 0 mm 0 mps 737 mmHg 72%
    05:00 +18°C° 0 mm 1 mps 737 mmHg 70%
    06:00 +19°C° 0 mm 1 mps 737 mmHg 68%
    07:00 +19°C° 0 mm 1 mps 737 mmHg 67%
    08:00 +21°C° 0 mm 1 mps 737 mmHg 60%
    09:00 +23°C° 0 mm 1 mps 737 mmHg 53%
    10:00 +25°C° 0 mm 1 mps 737 mmHg 47%
    11:00 +26°C° 0 mm 2 mps 737 mmHg 45%
    12:00 +26°C° 0 mm 2 mps 737 mmHg 44%
    13:00 +27°C° 0 mm 2 mps 736 mmHg 43%
    14:00 +26°C° 0.1 mm 2 mps 736 mmHg 49%
    15:00 +25°C° 0.1 mm 2 mps 736 mmHg 54%
    16:00 +24°C° 0.1 mm 2 mps 736 mmHg 60%
    17:00 +21°C° 0.1 mm 2 mps 736 mmHg 68%
    18:00 +20°C° 0.1 mm 1 mps 736 mmHg 76%
    19:00 +17°C° 0.1 mm 0 mps 736 mmHg 84%
    20:00 +17°C° 0 mm 0 mps 736 mmHg 84%
    21:00 +16°C° 0 mm 0 mps 736 mmHg 84%
    22:00 +18°C° 0 mm 1 mps 737 mmHg 85%
    23:00 +18°C° 0 mm 1 mps 736 mmHg 84%

    19 October, Saturday

    Time Temperature Precipitation Wind Pressure Humidity
    00:00 +18°C° 0 mm 1 mps 736 mmHg 83%
    01:00 +18°C° 0 mm 1 mps 736 mmHg 81%
    02:00 +16°C° 0 mm 0 mps 736 mmHg 81%
    03:00 +15°C° 0 mm 0 mps 736 mmHg 81%
    04:00 +15°C° 0 mm 0 mps 736 mmHg 80%
    05:00 +16°C° 0 mm 0 mps 736 mmHg 78%
    06:00 +18°C° 0 mm 1 mps 736 mmHg 76%
    07:00 +19°C° 0 mm 1 mps 736 mmHg 73%
    08:00 +21°C° 0 mm 1 mps 737 mmHg 66%
    09:00 +23°C° 0 mm 1 mps 737 mmHg 59%
    10:00 +24°C° 0 mm 1 mps 737 mmHg 52%
    11:00 +25°C° 0 mm 1 mps 737 mmHg 50%
    12:00 +26°C° 0 mm 2 mps 737 mmHg 48%
    13:00 +26°C° 0 mm 2 mps 736 mmHg 46%
    14:00 +25°C° 0 mm 2 mps 736 mmHg 51%
    15:00 +24°C° 0 mm 2 mps 736 mmHg 56%
    16:00 +23°C° 0 mm 2 mps 736 mmHg 61%
    17:00 +21°C° 0 mm 2 mps 736 mmHg 69%
    18:00 +20°C° 0 mm 1 mps 736 mmHg 77%
    19:00 +17°C° 0 mm 0 mps 737 mmHg 84%
    20:00 +16°C° 0 mm 0 mps 737 mmHg 84%
    21:00 +16°C° 0 mm 0 mps 737 mmHg 85%
    22:00 +18°C° 0 mm 1 mps 737 mmHg 85%
    23:00 +18°C° 0 mm 1 mps 737 mmHg 84%

    20 October, Sunday

    Time Temperature Precipitation Wind Pressure Humidity
    00:00 +18°C° 0 mm 1 mps 737 mmHg 83%
    01:00 +18°C° 0 mm 1 mps 737 mmHg 83%
    02:00 +16°C° 0 mm 1 mps 737 mmHg 82%
    03:00 +16°C° 0 mm 1 mps 737 mmHg 82%
    04:00 +16°C° 0 mm 1 mps 737 mmHg 81%
    05:00 +18°C° 0 mm 1 mps 737 mmHg 78%
    06:00 +18°C° 0 mm 1 mps 737 mmHg 76%
    07:00 +18°C° 0 mm 1 mps 737 mmHg 73%
    08:00 +21°C° 0 mm 1 mps 738 mmHg 64%
    09:00 +23°C° 0 mm 1 mps 738 mmHg 56%
    10:00 +25°C° 0 mm 1 mps 738 mmHg 47%
    11:00 +25°C° 0 mm 1 mps 738 mmHg 43%
    12:00 +26°C° 0 mm 2 mps 738 mmHg 38%
    13:00 +27°C° 0 mm 2 mps 738 mmHg 34%
    14:00 +26°C° 0 mm 2 mps 737 mmHg 40%
    15:00 +25°C° 0 mm 2 mps 737 mmHg 45%
    16:00 +24°C° 0 mm 2 mps 737 mmHg 51%
    17:00 +22°C° 0 mm 1 mps 737 mmHg 58%
    18:00 +20°C° 0 mm 1 mps 737 mmHg 64%
    19:00 +17°C° 0 mm 0 mps 738 mmHg 71%
    20:00 +17°C° 0 mm 0 mps 738 mmHg 70%
    21:00 +18°C° 0 mm 1 mps 738 mmHg 68%
    22:00 +18°C° 0 mm 1 mps 738 mmHg 67%
    23:00 +18°C° 0 mm 1 mps 738 mmHg 65%
    Show more